Hourly Data Report for October 19, 2021

OTTAWA INTL A
ONTARIO
Current Station Operator: NAVCAN

45°19'00.000" N
75°40'00.000" W
114.90 m
6106001
71628
YOW

Download Data

Hourly Data (October 2021)
Hourly Data Report for October 19, 2021
TIME
LST
Temp Definition
°C
Dew Point Definition
°C
Rel Hum Definition
%
Precip. Amount Definition
mm

Wind Dir Definition
10's deg

Wind Spd Definition
km/h
Visibility Definition
km
Stn Press Definition
kPa
Hmdx Definition


Wind Chill Definition


Weather Definition


00:00 7.3 2.2 70   28 20 24.1 99.95     LegendNANA
01:00 5.7 2.4 79   27 12 24.1 99.95     Mainly Clear
02:00 3.3 1.5 88   25 11 24.1 99.95     LegendNANA
03:00 2.7 1.6 92   25 11 24.1 99.96     LegendNANA
04:00 2.4 1.5 94   24 14 24.1 99.99     Clear
05:00 2.5 1.5 93   24 13 24.1 100.00     LegendNANA
06:00 3.3 2.1 92   24 10 24.1 99.99     LegendNANA
07:00 3.8 2.4 91   24 13 24.1 99.99     Mostly Cloudy
08:00 5.1 3.2 88   25 16 24.1 100.00     LegendNANA
09:00 6.5 2.9 77   25 17 24.1 99.99     LegendNANA
10:00 7.6 3.2 73   26 14 24.1 99.96     Mostly Cloudy
11:00 8.6 2.8 67   26 13 24.1 99.87     LegendNANA
12:00 10.1 4.2 67   24 11 24.1 99.77     LegendNANA
13:00 12.8 4.2 55   24 23 24.1 99.64     Mostly Cloudy
14:00 16.4 4.3 44   27 18 24.1 99.58     LegendNANA
15:00 17.0 4.0 42   29 15 24.1 99.55     LegendNANA
16:00 17.1 4.8 44   28 16 24.1 99.50     Mainly Clear
17:00 14.2 5.2 55   30 9 24.1 99.50     LegendNANA
18:00 13.5 4.9 56   27 4 24.1 99.53     LegendNANA
19:00 8.5 4.4 75   21 6 24.1 99.57     Clear
20:00 11.4 5.5 67   24 7 24.1 99.59     LegendNANA
21:00 9.3 5.4 76   22 10 24.1 99.60     LegendNANA
22:00 9.0 5.4 78   19 6 22.5 99.65     Clear
23:00 9.3 6.3 82   22 10 24.1 99.67     LegendNANA

Notes on Data Quality.

Legend

  • E = Estimated
  • M = Missing
  • NA = Not Available*
  • [empty] = Indicates an unobserved value
Date modified: